FW9607 Weather Reports


Display with metric or nautical units.
time (UTC)temp
F
wind
direction
speed
MPH
gust
MPH
rain 1hr
in
rain 24hr
in
rain mn
in
humidity
%
barometer
mb
20260505050749 72 190 2.0 7.0 0.00 0.00 0.00 93 1009.3
20260505050249 72 166 2.0 5.0 0.00 0.00 0.00 92 1009.4
20260505041747 72 157 1.0 3.0 0.00 0.00 0.00 90 1009.5
20260505041247 73 160 1.0 3.0 0.00 0.00 0.00 90 1009.4
20260505040747 73 141 1.0 3.0 0.00 0.00 0.00 90 1009.4
20260505040247 73 153 1.0 3.0 0.00 0.00 0.00 90 1009.4
20260505035747 73 186 1.0 2.0 0.00 0.00 0.00 90 1009.4
20260505035247 73 195 1.0 4.0 0.00 0.00 0.00 90 1009.4
20260505034747 73 146 1.0 4.0 0.00 0.00 0.00 89 1009.4
20260505034246 73 124 1.0 4.0 0.00 0.00 0.00 89 1009.3
20260505033748 73 174 2.0 4.0 0.00 0.00 0.00 89 1009.3
20260505033247 73 162 2.0 4.0 0.00 0.00 0.00 88 1009.3
20260505032745 73 48 2.0 5.0 0.00 0.00 0.00 88 1009.4
20260505032244 73 147 2.0 5.0 0.00 0.00 0.00 88 1009.4
20260505031745 74 176 2.0 4.0 0.00 0.00 0.00 88 1009.4
20260505030745 74 126 1.0 3.0 0.00 0.00 0.00 87 1009.2
20260505030245 74 155 1.0 4.0 0.00 0.00 0.00 87 1009.3
20260505025745 74 192 1.0 4.0 0.00 0.00 0.00 87 1009.3
20260505025245 74 150 1.0 4.0 0.00 0.00 0.00 86 1009.1
20260505024745 74 154 1.0 4.0 0.00 0.00 0.00 86 1009.2
20260505023745 74 137 1.0 4.0 0.00 0.00 0.00 85 1009.1
20260505022743 75 129 1.0 5.0 0.00 0.00 0.00 84 1009.0
20260505022240 75 87 2.0 4.0 0.00 0.00 0.00 84 1008.9
20260505021740 75 165 2.0 6.0 0.00 0.00 0.00 83 1008.9
20260505021239 75 0 2.0 6.0 0.00 0.00 0.00 83 1008.8
20260505020739 75 127 2.0 4.0 0.00 0.00 0.00 82 1008.8
20260505020240 75 99 2.0 6.0 0.00 0.00 0.00 82 1008.9
20260505015740 76 52 2.0 6.0 0.00 0.00 0.00 81 1008.7
20260505015236 76 125 2.0 7.0 0.00 0.00 0.00 81 1008.6
20260505014737 76 162 2.0 7.0 0.00 0.00 0.00 80 1008.5
20260505013737 76 111 2.0 6.0 0.00 0.00 0.00 80 1008.5
20260505013238 76 104 2.0 6.0 0.00 0.00 0.00 80 1008.3
20260505011737 77 131 2.0 7.0 0.00 0.00 0.00 79 1008.3
20260505011234 77 99 2.0 7.0 0.00 0.00 0.00 79 1008.3
20260505010735 77 127 3.0 5.0 0.00 0.00 0.00 79 1008.2
20260505010231 77 95 3.0 5.0 0.00 0.00 0.00 79 1008.1
20260505005735 77 119 3.0 6.0 0.00 0.00 0.00 79 1008.1
20260505005235 77 108 3.0 8.0 0.00 0.00 0.00 79 1008.2
20260505003735 78 107 3.0 7.0 0.00 0.00 0.00 78 1008.3
20260505003235 78 122 3.0 7.0 0.00 0.00 0.00 78 1008.4
20260505002735 78 84 3.0 8.0 0.00 0.00 0.00 78 1008.4
20260505001735 78 126 4.0 11.0 0.00 0.00 0.00 77 1008.5
20260505001235 79 124 5.0 11.0 0.00 0.00 0.00 77 1008.6
20260505000735 79 94 4.0 10.0 0.00 0.00 0.00 76 1008.6
20260504235736 79 184 4.0 9.0 0.00 0.00 0.00 76 1008.6
20260504235233 79 124 4.0 11.0 0.00 0.00 0.00 76 1008.6
20260504234730 79 114 4.0 11.0 0.00 0.00 0.00 76 1008.3
20260504234230 79 122 4.0 9.0 0.00 0.00 0.00 76 1008.5
20260504233729 79 102 4.0 12.0 0.00 0.00 0.00 76 1008.6
20260504232731 79 194 4.0 12.0 0.00 0.00 0.00 75 1008.5
20260504232230 79 129 4.0 10.0 0.00 0.00 0.00 75 1008.6
20260504231730 79 135 5.0 11.0 0.00 0.00 0.00 76 1008.6
20260504231230 80 126 5.0 11.0 0.00 0.00 0.00 75 1008.7
20260504225730 80 95 5.0 12.0 0.00 0.00 0.00 75 1008.8
20260504225230 80 96 5.0 12.0 0.00 0.00 0.00 75 1008.9
20260504223730 80 109 4.0 11.0 0.00 0.00 0.00 74 1008.9
20260504223228 81 112 4.0 13.0 0.00 0.00 0.00 74 1008.9
20260504222728 81 128 5.0 13.0 0.00 0.00 0.00 74 1009.1
20260504222228 81 177 5.0 11.0 0.00 0.00 0.00 73 1009.1
20260504221728 80 139 5.0 11.0 0.00 0.00 0.00 74 1009.1
20260504221228 80 139 4.0 11.0 0.00 0.00 0.00 74 1009.2
20260504220728 80 118 4.0 9.0 0.00 0.00 0.00 74 1009.4
20260504220229 81 155 5.0 14.0 0.00 0.00 0.00 74 1009.4
20260504215728 81 92 5.0 14.0 0.00 0.00 0.00 74 1009.3
20260504214729 81 134 4.0 11.0 0.00 0.00 0.00 74 1009.5
20260504214229 81 182 4.0 11.0 0.00 0.00 0.00 74 1009.5
20260504213729 81 88 3.0 11.0 0.00 0.00 0.00 74 1009.5
20260504213228 81 125 3.0 8.0 0.00 0.00 0.00 73 1009.5
20260504212725 81 139 4.0 9.0 0.00 0.00 0.00 74 1009.7
20260504212225 81 120 4.0 9.0 0.00 0.00 0.00 74 1009.7
20260504211726 81 151 4.0 9.0 0.00 0.00 0.00 73 1009.6
20260504210226 81 95 4.0 8.0 0.00 0.00 0.00 73 1009.9
20260504205726 82 114 3.0 8.0 0.00 0.00 0.00 72 1009.9
20260504205227 81 96 3.0 6.0 0.00 0.00 0.00 72 1010.0
20260504204726 81 118 3.0 6.0 0.00 0.00 0.00 73 1010.1
20260504204226 81 123 3.0 8.0 0.00 0.00 0.00 73 1010.2
20260504203726 81 122 3.0 8.0 0.00 0.00 0.00 73 1010.2
20260504203226 81 106 3.0 9.0 0.00 0.00 0.00 73 1010.3
20260504202727 81 120 3.0 9.0 0.00 0.00 0.00 73 1010.4
20260504202227 82 154 2.0 7.0 0.00 0.00 0.00 72 1010.6
20260504201724 81 318 2.0 7.0 0.00 0.00 0.00 72 1010.7
20260504201221 81 123 3.0 7.0 0.00 0.00 0.00 72 1010.7
20260504200718 81 180 3.0 9.0 0.00 0.00 0.00 73 1010.8
20260504200219 81 128 3.0 9.0 0.00 0.00 0.00 74 1010.7
20260504195719 81 129 4.0 9.0 0.00 0.00 0.00 73 1010.7
20260504195220 82 156 4.0 9.0 0.00 0.00 0.00 72 1010.8
20260504194720 82 128 4.0 10.0 0.00 0.00 0.00 70 1010.7
20260504193720 82 167 3.0 8.0 0.00 0.00 0.00 68 1010.9
20260504193219 82 212 3.0 8.0 0.00 0.00 0.00 68 1011.0
20260504192220 82 129 3.0 7.0 0.00 0.00 0.00 68 1011.2
20260504191220 81 195 3.0 9.0 0.00 0.00 0.00 69 1011.3
20260504190719 81 133 3.0 9.0 0.00 0.00 0.00 69 1011.4
20260504190221 82 154 2.0 8.0 0.00 0.00 0.00 68 1011.4
20260504185718 81 130 2.0 6.0 0.00 0.00 0.00 69 1011.3
20260504185219 81 122 2.0 6.0 0.00 0.00 0.00 70 1011.4
20260504184719 81 165 2.0 6.0 0.00 0.00 0.00 70 1011.4
20260504183716 81 157 3.0 6.0 0.00 0.00 0.00 70 1011.5
20260504183215 81 182 2.0 7.0 0.00 0.00 0.00 70 1011.6
20260504182716 81 113 2.0 7.0 0.00 0.00 0.00 71 1011.5
20260504182216 80 141 2.0 6.0 0.00 0.00 0.00 70 1011.7
20260504181716 80 210 2.0 8.0 0.00 0.00 0.00 71 1011.7
20260504181215 80 185 2.0 8.0 0.00 0.00 0.00 71 1011.8
20260504180717 80 156 2.0 6.0 0.00 0.00 0.00 72 1011.9
20260504180217 80 201 2.0 6.0 0.00 0.00 0.00 72 1011.9
20260504175716 80 181 2.0 6.0 0.00 0.00 0.00 71 1012.0
20260504174714 80 179 2.0 4.0 0.00 0.00 0.00 72 1012.0
20260504174213 79 186 2.0 5.0 0.00 0.00 0.00 72 1012.0
20260504173711 80 95 2.0 5.0 0.00 0.00 0.00 72 1012.1
20260504173211 80 128 2.0 5.0 0.00 0.00 0.00 73 1012.3
20260504172710 79 139 2.0 5.0 0.00 0.00 0.00 73 1012.3
20260504172211 79 135 2.0 10.0 0.00 0.00 0.00 73 1012.4
20260504171708 79 160 3.0 10.0 0.00 0.00 0.00 72 1012.5
20260504171208 79 180 2.0 6.0 0.00 0.00 0.00 72 1012.4
20260504170709 80 136 2.0 6.0 0.00 0.00 0.00 71 1012.5
20260504170209 80 121 2.0 6.0 0.00 0.00 0.00 71 1012.6
20260504160159 79 143 4.0 12.0 0.00 0.00 0.00 72 1013.0
20260504150656 77 135 4.0 10.0 0.00 0.00 0.00 75 1013.1
20260504150152 76 185 5.0 13.0 0.00 0.00 0.00 76 1013.1
20260504141150 74 171 3.0 11.0 0.00 0.00 0.00 80 1013.2
20260504140654 74 139 3.0 11.0 0.00 0.00 0.00 81 1013.1
20260504140149 74 171 3.0 7.0 0.00 0.00 0.00 81 1012.9
20260504130145 69 149 2.0 4.0 0.00 0.00 0.00 88 1013.3
20260504120126 64 127 1.0 2.0 0.00 0.00 0.00 93 1013.0
20260504100542 62 0 0.0 0.0 0.00 0.00 0.00 93 1013.6
20260504081010 62 0 0.0 2.0 0.00 0.00 0.00 91 1014.3